Back to catalog

THOR ABLESTAR DEB

AliveLEO
NORAD 121·DEBRIS·🇺🇸 United States

Launched Jun 29, 1961 from Cape Canaveral Space Force Station

Loading…

Next Passes (next 24 hours)

TLE

FreshSource: Space-Track

Epoch: Sep 14, 2026, 12:33 UTC

1 00121U 61015F   26257.52294024 -.00000014  00000-0  42559-4 0  9992
2 00121  66.7476 179.4332 0098872 300.5725  58.5631 14.00243667338877

Track THOR ABLESTAR DEB in real time with AllMySat

Download on the App Store